Wind_Speed
17 16 12 9 7 6 4 4 5 7 9 12 15 19 23 25 26 25 24 22 22 22 21 20 19 19 19 19 18 17 15 14 12 10 9 7 5 4 2 1 1 3 4 5 7 8 9 11 12 14 14 12 11 9 9 9 10 13 15 16 17 18 19 19 19 19 19 19 19 20 20 21 22 23 23 23 24 25 25 26 28 30 32 33 35
19 19 16 13 12 10 8 7 7 9 10 13 16 19 23 25 26 25 24 22 21 21 21 20 20 19 19 19 18 18 17 15 14 12 10 9 7 6 4 3 3 3 3 3 4 5 6 7 9 10 11 10 9 8 7 6 8 12 13 13 14 16 17 18 18 18 18 18 18 18 19 20 21 21 21 22 22 23 23 24 26 27 28 30 31
21 21 20 18 15 13 12 11 10 10 11 13 16 19 23 25 26 26 25 23 22 21 21 20 20 20 20 19 19 18 18 17 16 15 13 11 10 9 7 6 5 5 4 4 3 3 4 4 5 6 7 8 7 7 6 5 6 9 10 12 13 14 16 16 16 16 16 16 17 17 18 19 19 20 20 20 20 21 21 22 23 24 25 26 27
25 24 23 21 18 17 16 15 14 13 12 12 14 17 21 24 26 26 26 25 24 23 22 21 20 20 20 20 20 19 19 18 18 17 16 14 13 12 10 9 8 7 7 6 5 4 3 3 3 3 4 5 5 5 5 5 5 7 9 11 12 13 14 15 15 15 15 15 16 17 17 17 18 18 18 18 18 18 18 18 19 20 20 21 21
31 29 26 25 23 21 20 20 19 17 15 14 14 15 18 21 23 25 26 26 25 24 24 22 22 21 21 21 20 20 20 20 19 19 18 17 16 15 13 12 11 9 8 8 7 6 5 4 4 3 2 2 3 4 4 5 5 7 9 10 10 11 13 14 14 15 15 15 15 15 14 14 13 13 13 13 14 14 14 14 14 14 15 15 15
36 35 32 29 28 26 24 24 22 21 20 18 16 17 19 20 22 23 24 25 24 24 24 24 23 23 22 22 21 22 22 21 21 21 20 19 18 17 16 14 13 12 10 9 8 7 8 7 7 6 5 3 1 0 2 6 8 9 9 10 11 11 12 12 13 13 13 13 13 12 11 10 9 8 8 7 8 8 9 8 8 7 6 6 8
40 39 36 33 32 30 28 27 25 24 24 22 21 21 21 21 22 23 24 24 23 23 24 24 24 23 23 22 22 23 23 23 24 23 22 21 19 18 17 16 15 14 13 11 9 9 10 11 10 9 8 7 5 4 4 7 10 11 11 11 11 11 12 13 12 12 12 12 11 9 8 5 4 4 5 4 4 4 4 3 2 1 2 4 2
42 42 40 38 37 35 33 31 29 27 26 26 25 24 23 22 22 23 24 25 24 23 24 25 24 23 23 22 22 25 26 26 25 24 22 22 21 19 19 18 17 16 15 14 13 13 15 15 13 12 12 10 9 8 8 8 11 13 14 14 13 12 13 14 13 12 12 12 10 9 7 6 7 8 8 7 8 7 5 3 4 4 5 8 7
44 44 44 42 41 40 38 36 33 30 29 28 28 28 26 25 24 25 25 25 25 25 26 27 25 24 24 23 23 26 28 27 26 25 24 24 22 21 20 20 19 19 18 17 16 17 18 17 16 15 14 13 13 13 12 10 12 15 17 17 16 15 15 15 14 13 13 13 13 12 12 12 11 11 12 13 12 12 11 10 10 9 9 11 12
46 43 42 43 44 42 41 39 36 34 32 31 31 31 30 29 28 28 27 26 26 27 28 28 27 26 26 25 25 27 30 29 27 27 27 25 24 23 23 22 22 21 21 20 20 20 20 19 18 17 16 16 16 16 15 13 13 15 17 19 19 19 18 18 18 17 17 17 17 17 16 16 15 14 14 15 15 15 15 15 14 14 13 14 15
50 44 41 43 46 46 44 42 39 37 36 35 34 34 34 33 33 32 31 30 29 29 29 29 28 28 28 26 26 28 31 31 29 29 29 27 26 26 26 25 24 23 23 23 23 23 21 20 19 17 17 18 19 18 17 16 16 16 18 19 21 21 20 20 20 20 19 19 19 19 19 19 18 17 17 17 18 19 19 18 17 17 17 18 18
49 44 43 46 48 50 48 45 43 41 40 38 37 37 37 37 36 36 35 34 32 31 31 29 29 29 28 26 27 28 28 29 31 31 30 29 28 28 28 27 26 24 24 24 24 23 22 20 19 18 18 20 21 19 18 17 17 17 19 20 21 21 21 21 21 21 21 21 21 21 21 21 21 21 20 21 22 22 22 21 20 20 20 21 21
51 46 46 48 49 53 52 48 45 44 42 42 41 41 41 40 39 38 38 37 36 35 34 32 31 31 29 28 29 30 28 29 31 31 31 30 30 29 29 28 26 25 25 24 24 23 22 21 20 21 24 25 23 19 18 18 18 18 18 20 20 21 20 20 21 21 22 23 22 21 22 23 23 23 22 23 22 22 22 22 22 22 22 22 22
60 56 53 50 48 51 53 51 48 47 46 45 45 45 44 43 42 42 41 40 39 38 38 36 35 35 33 30 31 33 33 32 32 32 32 32 31 31 30 29 28 27 26 26 26 25 24 24 23 24 25 25 24 22 20 19 20 20 20 20 21 21 20 20 20 22 23 24 24 23 23 24 25 25 24 23 22 21 22 22 22 22 23 23 23
63 63 62 59 53 51 53 54 53 53 51 49 48 49 49 48 47 45 44 43 42 42 42 40 38 38 36 33 35 38 38 35 34 34 35 35 34 33 32 32 31 30 29 29 28 28 27 27 27 27 28 28 27 26 24 23 24 24 24 24 24 24 24 23 24 26 26 26 26 26 26 26 28 27 26 25 24 24 26 25 23 23 24 25 25
65 65 65 65 61 56 56 57 58 59 56 53 52 53 53 52 51 49 47 46 45 45 45 43 41 40 38 37 39 41 39 37 37 37 38 38 37 36 35 35 35 34 32 32 31 30 30 31 31 31 32 33 32 30 29 28 28 28 28 28 28 28 29 28 29 30 30 30 30 31 31 30 29 29 28 27 27 28 29 29 27 26 27 28 28
69 68 69 69 67 64 62 61 62 63 61 57 56 56 56 56 55 53 51 49 48 48 47 46 44 44 42 42 44 43 40 39 38 39 40 40 39 39 39 39 39 38 37 36 35 34 33 34 34 34 35 36 36 34 33 32 31 31 32 32 32 32 32 31 32 33 33 32 32 33 33 32 33 33 33 32 31 32 32 31 30 29 29 30 30
73 72 73 73 73 72 70 67 66 65 65 62 60 59 59 58 58 56 54 53 51 50 50 49 48 47 46 46 47 45 43 42 41 40 42 43 41 41 41 42 42 42 42 40 38 37 38 38 38 37 37 38 38 37 36 35 35 34 34 35 35 35 35 34 34 35 36 35 34 33 33 33 34 35 35 33 34 35 35 35 34 33 33 34 34
73 72 74 76 76 75 74 72 70 68 68 67 65 63 62 61 60 59 57 56 55 53 53 52 51 49 48 47 48 47 45 45 45 45 45 45 45 44 44 44 45 45 45 44 42 42 42 43 42 40 40 40 40 40 40 40 39 38 38 38 38 38 38 37 37 38 39 38 37 36 36 36 36 36 36 35 36 37 38 37 37 36 36 36 37
73 72 73 76 78 77 75 74 73 71 70 69 69 68 66 65 64 62 61 59 58 57 56 55 54 52 50 50 50 49 47 46 47 49 50 49 48 47 47 47 48 49 48 47 48 48 47 47 45 43 42 42 42 42 43 43 43 43 43 43 43 43 42 41 40 41 41 41 41 40 40 40 40 39 39 39 40 41 42 41 39 38 38 38 39
76 75 74 75 76 78 78 77 76 75 73 72 72 72 71 70 68 67 65 64 62 60 59 58 57 56 55 54 53 51 51 50 49 50 52 52 51 50 49 49 49 51 52 52 52 52 52 52 49 46 45 44 45 46 46 46 47 47 47 47 47 48 47 46 44 43 44 44 44 43 43 43 43 43 43 43 43 44 45 45 44 42 42 42 42
78 78 78 76 75 75 77 78 78 78 77 76 75 75 75 74 73 72 70 69 67 66 64 62 61 59 58 58 57 55 55 57 56 53 52 54 54 53 53 53 51 51 53 55 56 55 55 54 52 51 50 49 49 50 51 51 51 51 50 50 51 50 50 49 48 47 47 47 47 47 46 45 45 46 46 46 47 47 47 48 49 49 48 47 47
81 80 80 80 78 76 76 76 77 78 79 79 79 79 78 78 78 77 75 73 72 70 69 68 66 64 62 61 61 60 59 60 61 59 56 57 58 57 58 60 59 55 54 55 56 57 57 56 55 55 55 55 55 56 56 55 54 54 54 54 54 53 53 53 53 53 53 53 52 51 50 49 49 49 49 49 49 49 50 50 52 53 53 53 52
85 84 82 81 80 80 80 79 78 79 79 80 81 81 81 81 81 81 80 78 76 74 73 71 70 69 68 66 65 64 63 63 64 63 61 61 62 62 62 64 64 62 58 56 56 56 56 57 58 59 59 60 60 60 60 60 59 58 58 58 57 57 57 57 56 56 56 56 56 56 54 53 53 53 53 53 53 53 52 52 53 54 55 56 56
91 88 86 84 82 82 83 83 82 81 81 82 81 82 83 84 84 83 83 82 81 79 77 75 72 71 71 71 69 68 67 67 67 67 64 63 64 65 64 64 65 66 65 63 61 61 59 59 59 60 61 63 63 63 64 64 64 63 63 63 62 62 62 61 60 59 59 59 59 59 59 58 57 57 58 58 58 58 57 56 56 56 56 57 58
98 95 92 89 87 84 84 84 84 84 84 84 84 83 84 85 86 86 85 85 84 83 82 80 77 75 74 74 74 73 72 71 71 70 69 67 66 67 66 65 66 68 69 69 68 69 67 66 65 64 63 63 64 65 65 66 67 67 67 67 67 66 66 65 65 64 63 63 63 62 63 63 63 63 63 63 62 61 61 60 60 59 59 59 59
103 102 100 97 93 90 87 86 86 85 86 86 86 85 85 86 87 87 87 87 87 86 86 85 84 82 79 78 77 77 76 76 75 75 74 73 72 72 71 69 69 70 71 71 71 71 70 70 70 70 68 67 67 66 65 66 67 69 70 70 69 68 68 68 68 68 67 67 67 66 66 67 67 67 66 65 64 64 63 63 63 62 62 62 62
104 105 105 103 100 97 93 90 88 88 88 87 88 88 88 87 87 88 88 88 88 88 88 88 88 88 86 85 83 82 81 80 80 80 80 80 80 80 79 78 77 77 78 78 77 77 75 73 73 73 73 72 72 72 70 68 68 69 70 71 70 70 70 69 70 70 70 70 69 69 69 69 69 69 69 68 68 67 67 67 67 67 67 66 66
104 106 106 105 104 102 99 95 92 91 91 90 89 90 90 90 90 89 89 89 89 89 90 90 91 91 91 91 90 88 87 86 85 85 85 85 87 87 88 87 87 87 87 87 86 85 84 82 80 78 77 77 77 77 76 75 74 73 73 73 73 73 73 73 73 73 73 72 72 72 72 72 72 72 71 71 71 71 70 71 71 71 71 71 71
100 103 106 107 106 103 101 99 97 95 94 94 93 92 92 93 93 93 93 92 92 92 91 91 92 92 92 93 93 93 92 92 91 91 90 90 91 92 93 93 93 93 93 94 93 92 90 90 88 87 85 84 83 82 81 80 79 78 78 77 77 76 76 76 77 77 76 76 76 76 76 75 75 74 74 74 74 74 74 74 75 75 75 75 76
96 98 102 106 107 105 102 100 100 99 97 97 97 96 95 95 95 96 96 96 96 96 95 95 95 95 95 95 95 95 96 96 96 96 96 96 96 97 97 97 97 97 97 97 97 96 95 94 93 92 91 90 89 89 88 86 84 83 82 82 81 80 80 80 80 80 80 79 79 79 79 78 78 77 76 76 76 76 77 77 77 78 78 79 80
95 95 97 101 105 106 104 102 101 102 101 99 99 99 99 98 98 97 97 98 99 99 99 99 98 98 98 98 98 98 98 99 100 100 101 101 102 102 102 101 101 101 101 101 100 100 99 98 97 96 95 94 93 93 93 92 91 89 88 87 86 86 85 85 85 85 85 84 84 83 82 82 81 80 80 80 80 80 80 80 80 81 81 82 82
93 94 95 97 101 104 106 105 104 103 103 103 102 101 102 102 102 100 99 98 99 101 102 102 102 101 101 101 101 101 101 101 102 103 103 104 105 106 106 106 106 105 105 104 104 104 103 102 100 99 98 98 97 97 97 97 97 95 94 93 92 91 91 91 91 90 90 90 90 90 90 89 88 87 87 87 86 85 85 84 84 84 83 83 84
91 93 94 95 97 101 104 106 106 105 105 105 105 104 103 104 105 105 103 101 100 101 102 103 103 104 104 103 103 103 103 103 103 103 103 104 105 107 108 109 109 109 109 108 108 107 106 106 105 103 102 101 101 100 100 100 101 101 100 99 98 97 96 96 96 96 96 95 95 96 95 95 94 94 93 93 92 91 90 89 87 87 86 86 86
88 91 93 94 95 97 100 103 105 106 106 106 106 106 105 105 106 107 108 107 105 103 102 102 103 104 105 105 106 106 106 106 106 106 106 105 106 107 108 108 109 109 110 111 111 110 109 109 108 107 106 106 105 104 104 103 103 103 103 103 103 102 101 101 101 101 101 101 101 101 101 100 100 100 99 98 98 97 96 95 94 93 92 91 91
87 89 91 93 94 95 97 99 102 105 107 107 107 107 107 107 107 107 109 110 109 108 106 105 105 105 106 106 107 108 108 109 109 109 109 109 109 109 109 110 111 111 111 112 112 112 112 112 111 110 109 108 107 107 106 105 105 105 104 104 104 104 104 104 104 104 104 104 104 104 104 104 104 104 103 103 102 102 102 101 100 100 98 98 98
86 88 90 92 93 94 95 97 99 101 104 106 107 108 108 108 109 109 110 111 111 111 110 109 109 109 109 108 109 109 110 111 111 111 112 112 112 112 112 113 114 115 115 115 115 115 115 115 114 114 113 112 111 110 109 108 107 106 106 106 106 106 106 106 106 106 106 107 107 106 106 106 106 106 105 105 105 105 105 105 105 105 104 104 104
83 86 88 90 92 94 95 96 97 99 101 103 105 107 108 109 110 110 111 112 113 113 113 112 112 113 113 113 112 112 112 113 114 115 115 115 115 115 116 116 117 118 118 119 119 119 119 118 118 117 116 116 115 115 114 113 112 111 110 109 109 108 108 108 107 107 107 107 107 107 106 106 107 107 108 108 108 108 108 108 108 109 109 109 110
79 81 84 86 88 91 94 95 97 98 100 101 103 105 107 108 109 110 111 113 114 114 115 115 114 115 116 117 118 117 116 116 116 118 119 119 120 120 119 120 120 121 122 123 123 123 123 123 122 122 121 120 120 119 119 118 117 117 116 115 114 113 111 110 109 109 109 109 110 110 110 110 110 110 110 111 111 111 111 111 112 112 113 113 114
82 82 82 83 84 86 89 91 94 96 99 101 102 104 106 107 108 109 111 112 113 114 116 117 117 117 118 119 120 121 122 121 121 121 121 122 123 123 123 124 125 125 126 126 127 127 126 126 126 126 126 125 124 124 123 123 122 122 121 120 120 119 118 116 114 113 112 112 112 113 114 115 115 116 116 116 116 116 115 116 116 116 117 117 118
85 86 86 85 85 85 86 88 90 92 95 97 100 102 104 106 108 109 111 112 113 114 115 117 118 119 120 121 121 122 124 125 126 126 126 126 126 126 127 128 129 130 131 131 131 130 130 129 129 129 129 129 129 128 127 127 126 126 125 125 125 125 124 124 123 122 120 119 119 118 119 119 119 119 119 120 120 120 120 120 120 120 121 121 121
83 86 87 88 89 88 89 89 90 91 92 94 95 97 99 102 104 107 109 111 113 115 115 116 117 119 121 123 124 124 125 126 128 130 131 131 131 131 131 131 132 134 135 136 136 135 134 133 133 132 132 133 133 132 132 131 131 130 131 131 131 130 130 130 129 129 128 127 127 126 126 125 125 124 124 124 123 123 123 123 123 123 123 123 123
75 79 83 86 88 90 91 92 93 93 93 94 94 95 97 98 101 103 106 108 111 113 115 117 118 120 122 124 125 126 127 127 128 130 132 134 135 136 137 137 137 138 139 139 139 139 138 137 136 136 136 136 136 136 136 136 135 135 135 135 135 135 135 134 134 134 133 133 132 131 131 131 131 130 130 130 129 129 128 128 128 128 127 127 127
66 70 74 78 82 85 88 90 92 93 94 95 96 96 97 98 99 101 102 104 107 109 112 114 116 119 122 125 127 128 128 129 130 131 132 133 136 138 140 142 143 144 145 144 144 143 142 141 140 139 139 138 138 139 139 139 139 139 139 138 138 138 138 137 137 137 137 137 137 136 136 136 136 136 135 135 135 135 134 133 133 132 132 132 132
59 62 66 69 73 76 79 83 85 88 90 93 94 96 97 98 99 100 101 102 103 105 107 109 111 114 117 121 125 128 129 131 132 133 134 135 136 138 140 143 146 148 150 151 150 150 148 147 145 144 143 142 142 142 142 143 143 143 142 141 140 139 139 139 139 140 140 140 140 140 140 140 140 140 140 140 140 140 139 139 138 137 137 137 137
52 55 58 61 64 67 70 73 76 79 82 85 88 90 92 94 96 97 98 100 101 102 103 104 106 107 110 113 117 121 124 127 130 133 135 136 138 139 141 143 145 147 149 152 153 154 154 154 153 152 151 149 148 147 147 147 147 147 147 145 144 143 142 142 142 142 142 143 143 143 143 143 143 144 144 144 144 144 144 143 143 143 143 143 143
43 46 49 52 55 57 60 63 66 69 72 75 78 80 82 85 88 90 93 95 96 98 99 100 101 102 104 106 109 112 116 119 123 127 130 134 136 139 142 144 146 147 148 149 151 152 154 155 156 157 158 157 156 155 154 153 153 153 152 151 150 149 148 148 147 147 147 147 146 146 146 146 146 146 146 146 147 147 147 147 147 147 147 148 147
38 40 42 44 46 49 51 54 57 59 62 65 67 69 72 74 77 80 83 85 87 90 91 93 95 97 99 101 103 106 110 113 116 120 123 127 131 135 138 141 144 146 147 148 150 150 151 152 154 155 157 158 159 159 160 160 160 160 159 158 157 156 155 154 153 153 153 153 152 152 151 151 151 150 150 149 149 149 149 150 150 150 150 151 151
37 38 40 41 43 45 46 48 50 52 54 57 59 60 62 65 67 70 72 74 76 79 81 83 86 89 91 94 97 100 103 107 110 114 117 120 123 127 131 134 136 139 141 144 146 148 150 151 153 154 155 156 157 158 159 161 162 162 162 163 163 163 162 162 161 161 160 159 159 159 158 158 158 157 157 156 155 155 155 154 154 154 154 154 154
36 38 39 40 42 44 45 47 49 50 52 54 55 56 58 60 62 65 66 68 70 72 75 77 79 82 85 88 91 94 97 100 104 107 110 113 115 118 120 123 125 127 129 132 134 136 139 142 145 148 150 153 154 156 158 160 161 161 162 163 163 164 164 165 165 165 165 165 165 164 164 164 164 164 163 162 162 161 161 161 161 161 160 159 158
38 40 41 42 44 46 47 48 50 51 53 54 55 57 58 60 62 64 66 67 68 71 73 75 76 79 82 85 87 90 93 95 98 101 104 106 107 109 110 111 113 115 117 118 120 121 123 126 128 131 134 137 139 142 146 149 151 153 155 156 158 159 161 161 162 163 164 164 165 165 165 166 166 166 166 166 166 165 165 166 166 166 165 165 164
Wind_Direction
214 221 223 224 224 229 224 191 161 150 152 159 165 169 172 174 175 174 174 175 177 179 182 183 185 185 187 187 187 188 189 190 191 191 190 190 189 184 170 113 30 26 29 32 33 36 41 45 51 53 57 68 80 85 88 94 108 117 117 113 111 112 115 117 117 116 115 115 114 113 112 112 110 108 106 104 103 101 98 97 96 95 93 90 87
218 221 217 216 215 217 221 213 193 174 166 168 172 175 178 180 181 182 183 183 184 186 189 191 193 194 195 196 198 199 200 202 205 208 212 215 217 221 230 253 281 301 327 346 5 18 28 37 45 50 54 62 79 94 94 99 119 127 127 124 124 125 126 126 124 122 121 120 119 119 118 117 116 114 113 111 109 106 104 100 99 97 96 94 91
224 225 222 218 215 214 218 219 213 199 184 178 178 180 183 186 187 189 191 192 192 193 195 196 198 201 203 205 207 208 210 212 215 219 224 230 235 238 243 254 266 273 282 294 313 336 357 19 32 42 50 56 72 98 109 113 131 141 141 138 137 136 137 135 133 130 129 128 127 126 125 124 124 121 119 117 114 111 108 105 104 103 102 99 95
229 229 226 222 217 214 215 219 218 209 201 197 191 187 188 191 194 196 197 198 199 200 200 201 202 204 207 211 214 217 218 220 223 227 232 237 243 246 248 252 258 261 263 270 282 294 306 325 347 11 36 48 58 90 120 130 142 152 149 146 142 142 144 145 143 140 138 138 135 132 131 129 127 125 122 120 118 115 113 111 110 109 107 103 98
233 234 232 229 224 217 214 218 218 214 210 208 204 199 196 196 199 201 203 205 205 205 205 205 206 208 211 215 219 222 225 227 229 232 236 239 243 245 246 248 250 251 253 259 266 270 275 281 287 303 336 21 48 71 121 150 164 167 163 159 156 155 156 155 154 152 150 148 144 140 138 135 132 129 126 123 123 120 119 117 115 115 112 105 101
231 234 234 233 231 223 218 219 220 220 220 215 212 212 208 203 201 203 206 208 208 209 209 208 209 212 216 219 223 225 228 231 232 234 236 237 239 241 243 244 245 244 246 250 256 264 270 273 272 278 287 282 270 36 177 182 184 186 185 181 177 176 173 169 166 165 163 160 155 149 148 145 143 141 136 135 134 128 125 121 115 113 106 94 102
231 233 234 234 234 228 223 223 222 220 221 218 215 218 217 213 209 206 206 208 210 212 212 211 211 213 216 221 226 230 230 232 233 233 234 236 237 239 240 241 242 241 240 239 242 252 260 263 266 268 272 269 258 253 231 206 200 202 202 197 192 191 188 182 180 181 179 175 169 166 165 168 191 198 182 179 187 167 145 137 136 90 359 7 42
230 233 233 233 235 231 226 225 224 220 220 220 219 220 220 219 218 215 212 212 213 212 212 214 215 215 215 217 227 233 232 232 234 234 235 236 236 236 237 238 238 238 236 233 233 239 245 251 257 262 264 267 266 261 250 228 217 215 216 213 208 206 200 194 193 194 196 197 198 202 214 241 259 246 234 246 253 240 233 250 257 270 310 321 312
230 233 233 232 234 233 227 225 225 222 222 224 226 225 223 222 222 222 220 218 217 213 212 215 217 216 216 215 223 235 236 233 233 235 236 236 234 234 233 233 233 234 235 235 237 240 243 248 255 258 259 261 263 262 256 245 231 224 224 224 222 221 219 215 214 215 217 222 227 234 244 256 260 254 253 263 264 250 247 257 258 260 284 299 296
229 233 233 231 232 232 228 225 225 224 223 226 229 227 225 224 223 224 224 223 222 220 217 217 215 216 219 216 218 231 238 235 232 233 235 234 234 234 234 233 232 234 236 238 241 243 244 248 253 257 259 262 262 261 257 249 238 229 227 225 225 227 228 228 231 235 237 237 238 244 251 254 256 256 259 264 264 257 256 260 258 256 265 277 285
227 230 231 230 231 232 230 228 226 225 225 227 229 228 227 226 226 226 227 226 226 225 225 222 219 221 224 220 218 227 233 232 232 234 234 234 234 236 237 237 236 238 239 240 241 244 246 248 252 257 264 266 263 258 254 248 241 236 231 226 223 224 226 227 232 239 242 243 244 247 250 252 255 256 258 261 264 265 265 265 262 258 260 267 278
223 227 229 229 231 231 229 229 228 227 227 228 230 231 230 229 228 229 230 230 228 228 228 227 227 230 230 226 226 232 234 232 234 236 236 236 236 237 238 239 239 240 242 243 245 247 248 247 246 246 247 249 251 253 252 249 245 241 238 233 228 227 227 229 233 238 241 243 243 246 249 253 255 258 260 262 264 265 267 267 264 264 265 267 272
218 219 222 224 227 228 227 228 230 230 230 230 230 233 233 232 230 230 232 232 230 229 230 230 233 236 235 232 235 239 237 234 236 238 239 239 238 237 238 239 239 239 240 243 245 246 247 246 242 238 236 237 239 245 252 255 254 251 248 243 239 237 236 236 239 243 246 246 247 249 254 258 259 260 263 266 266 265 265 266 266 268 272 274 274
222 221 221 220 223 227 227 229 232 233 233 231 231 233 234 234 233 231 231 232 231 231 231 233 236 237 236 235 239 242 239 235 236 239 240 241 240 239 240 240 239 238 238 240 242 242 243 243 242 242 244 244 240 239 245 250 253 255 256 254 251 248 248 250 254 257 257 257 257 257 258 261 264 265 266 268 269 267 265 266 269 273 276 278 277
229 229 229 228 230 231 230 231 233 234 234 233 233 235 235 235 235 234 233 232 233 234 235 236 237 237 236 235 238 241 241 239 239 240 241 243 243 242 243 244 242 241 240 240 242 242 241 242 242 243 246 249 246 243 243 246 247 250 253 256 257 256 256 258 261 264 264 265 267 266 264 263 265 267 269 270 270 270 269 269 271 274 277 279 279
229 232 234 235 235 234 233 232 233 235 235 233 233 235 237 237 237 237 236 235 235 236 238 238 238 238 238 238 239 241 242 242 243 243 242 244 246 246 247 248 247 246 243 241 243 244 243 243 243 244 245 248 248 248 247 246 247 249 250 253 255 257 258 260 261 262 263 265 268 269 269 268 267 269 272 273 272 272 272 272 272 274 277 278 279
228 232 234 236 235 234 233 233 233 234 236 235 233 234 236 238 239 239 239 239 239 239 239 239 239 239 241 242 243 243 243 243 245 246 245 246 248 249 250 251 251 251 249 246 245 245 245 245 246 246 247 248 249 250 249 248 249 250 251 252 253 254 256 258 259 261 262 262 263 265 267 269 270 270 271 270 268 268 268 268 269 272 273 274 275
229 231 233 234 235 233 232 233 233 234 235 235 234 234 235 237 239 240 241 241 241 241 240 241 241 242 243 244 245 246 245 246 248 249 248 248 248 249 250 251 252 253 253 252 250 248 247 247 247 248 250 250 251 252 252 252 252 252 252 253 254 255 256 256 257 259 260 261 262 264 265 266 268 270 271 270 270 270 268 267 268 270 271 271 273
230 230 232 233 233 233 232 232 232 233 234 236 236 236 237 237 238 240 241 242 242 242 242 243 244 244 245 246 247 249 249 249 251 253 252 251 250 250 251 252 252 253 253 254 253 252 249 247 247 249 251 253 254 254 254 255 255 255 255 255 255 256 256 256 256 258 259 260 261 262 263 264 264 266 267 269 271 273 273 272 272 271 271 271 271
231 230 231 233 233 233 232 232 233 233 234 235 237 238 239 239 239 240 241 241 241 241 242 244 244 245 247 249 249 249 249 251 254 256 255 253 253 253 254 254 255 254 254 254 254 254 252 249 246 246 248 252 254 255 256 256 257 257 258 258 258 258 257 257 257 256 257 259 261 262 263 264 264 264 264 263 264 267 271 273 273 271 271 272 272
234 234 233 233 233 233 233 234 235 235 235 236 237 239 241 241 241 241 241 241 241 241 241 242 243 244 246 249 250 249 248 250 254 255 254 254 255 254 253 254 256 256 255 255 255 255 254 252 249 247 247 249 252 253 254 255 255 256 257 258 258 259 259 258 258 258 258 258 259 261 262 263 263 264 264 264 263 264 268 270 271 270 271 273 274
232 235 236 236 235 233 233 234 236 237 237 237 237 239 241 242 243 243 242 243 243 243 242 242 243 243 244 246 247 248 249 250 252 254 253 254 256 255 251 250 251 252 252 253 254 255 255 255 254 252 250 250 251 252 253 253 254 253 253 254 256 258 259 260 261 262 263 262 261 262 262 263 264 264 264 264 264 264 266 267 269 270 270 271 274
229 231 234 237 238 237 235 234 235 237 237 238 238 239 239 241 243 244 244 244 245 245 245 244 243 243 244 244 245 246 248 250 252 253 253 253 254 255 254 251 249 248 249 251 252 254 256 257 257 257 256 256 255 254 255 255 255 255 254 255 255 257 259 261 262 263 264 265 264 265 265 266 267 267 267 267 267 267 266 266 267 268 269 269 271
232 230 231 234 236 239 239 238 237 237 237 237 238 239 240 240 242 243 245 245 245 246 247 246 245 244 244 244 244 245 246 248 250 252 252 252 253 255 257 256 253 251 250 251 251 252 254 255 256 256 257 258 258 257 258 258 258 258 258 258 258 258 258 259 259 260 261 263 264 265 266 266 267 269 270 271 271 271 270 270 270 270 270 270 270
237 235 235 234 234 235 238 240 240 240 239 239 238 239 240 241 242 243 244 245 246 246 247 248 247 246 246 245 245 245 245 246 248 250 251 250 250 252 256 258 257 254 252 252 252 253 253 254 255 255 255 257 257 257 258 258 259 259 260 260 260 260 260 260 259 259 260 260 261 263 265 266 267 269 271 272 273 273 272 272 273 273 273 273 273
238 239 239 238 237 235 235 237 240 241 241 241 240 240 240 241 242 243 244 245 246 247 248 248 248 248 247 247 247 246 246 246 247 248 249 249 248 248 251 254 256 256 254 254 254 255 255 256 257 256 255 255 256 256 257 258 258 259 260 260 260 260 260 260 261 261 261 262 262 262 264 265 267 269 270 272 273 273 273 273 273 273 274 274 274
238 240 241 241 241 240 237 236 237 239 241 242 243 243 242 241 242 243 244 245 246 247 248 249 249 249 249 249 248 248 248 248 247 247 247 248 248 248 248 249 253 256 257 257 258 258 257 256 257 257 256 255 256 256 257 257 258 258 259 260 261 261 261 261 261 261 262 262 263 264 264 266 267 269 270 271 271 272 273 274 274 274 274 274 274
239 240 241 242 243 243 242 239 236 236 239 241 242 243 244 244 243 243 244 245 246 247 248 248 249 251 251 251 250 250 250 250 250 249 249 248 249 249 249 250 251 254 256 258 260 261 260 259 258 257 257 257 258 257 257 257 257 258 259 260 261 262 263 262 262 262 261 262 263 264 265 267 268 269 269 270 271 272 272 273 273 274 275 275 275
239 240 241 242 243 243 243 242 239 237 237 238 241 242 244 245 245 245 245 246 246 247 248 249 250 251 252 253 253 253 252 251 251 251 251 251 251 252 253 253 254 255 256 258 260 261 262 262 261 260 260 260 260 260 258 258 258 258 259 259 260 261 262 262 262 262 262 263 263 264 265 267 268 269 270 270 271 272 272 273 273 274 274 274 274
240 240 241 242 243 243 243 243 242 240 237 236 238 240 242 244 245 246 247 247 248 248 249 249 250 251 252 254 255 255 255 254 253 253 253 253 253 254 255 256 256 257 258 259 260 261 262 263 263 263 263 263 263 263 262 261 260 261 260 260 260 261 262 262 262 262 263 264 265 265 266 266 267 267 269 270 271 272 272 273 273 274 275 275 274
241 241 241 241 242 243 243 242 241 241 240 238 237 237 239 242 244 246 247 248 249 249 250 251 251 252 253 254 255 257 257 258 257 256 255 255 254 255 256 257 257 258 259 259 260 261 262 263 263 264 264 265 265 265 265 264 263 263 263 262 262 262 262 263 263 263 263 264 264 265 266 266 266 266 267 268 268 269 270 272 273 274 274 275 275
241 242 242 242 241 242 243 242 241 241 241 241 240 238 237 239 241 243 245 247 248 249 250 251 252 253 254 255 256 257 258 259 260 259 259 258 257 257 257 257 258 259 259 260 260 261 261 262 263 264 264 264 265 265 266 266 266 265 265 265 264 263 263 263 264 265 265 265 265 266 266 266 266 266 266 267 268 268 269 271 272 273 274 274 274
242 242 243 243 242 242 243 243 243 242 241 242 242 241 240 239 239 240 242 244 246 248 249 251 252 253 254 255 255 256 257 259 260 261 261 261 261 260 260 260 260 260 260 261 261 262 262 262 263 263 264 264 264 265 265 266 266 266 266 266 266 265 265 265 265 265 266 267 267 267 267 267 267 267 267 268 268 269 270 271 272 272 272 273 273
243 243 243 243 244 243 243 244 244 244 244 243 242 242 243 242 241 240 240 241 243 245 247 249 250 252 253 253 254 255 256 257 258 259 260 261 262 263 263 263 263 263 263 263 263 263 264 264 264 264 264 264 265 265 265 265 266 266 266 266 266 266 266 266 266 266 267 267 267 268 268 269 269 269 270 270 270 271 271 272 272 272 272 272 272
245 245 245 245 245 245 245 245 245 245 246 245 244 243 243 243 243 243 243 242 242 243 244 246 248 249 251 252 252 253 254 255 256 257 258 259 260 261 262 263 263 264 264 264 264 264 265 265 266 266 266 266 266 266 266 267 267 267 268 268 268 267 267 267 267 267 268 268 268 268 269 269 270 270 271 271 272 273 273 273 273 273 273 272 272
246 246 246 247 247 246 246 246 246 246 247 247 247 246 245 244 244 244 245 245 244 244 243 244 245 246 248 249 250 251 252 253 254 255 256 257 257 258 259 260 261 262 263 264 264 265 265 266 266 266 267 267 267 267 267 267 268 268 268 269 269 269 269 269 269 269 269 269 269 269 269 269 270 270 271 271 272 272 273 274 274 274 274 274 274
247 247 248 248 248 248 248 248 248 248 248 248 248 249 248 247 246 245 246 247 247 247 246 245 244 245 246 247 248 249 250 252 253 254 254 255 256 256 257 258 259 260 261 262 263 263 264 265 265 266 266 267 267 267 267 267 267 267 267 268 269 269 270 270 270 270 270 270 270 270 270 270 270 270 270 270 271 271 272 273 273 274 274 275 275
246 247 248 249 249 249 250 250 250 249 249 249 249 249 250 250 249 248 247 247 248 249 249 248 247 246 245 246 246 247 248 249 251 252 253 254 255 255 256 256 257 257 258 259 260 261 262 262 263 264 264 265 266 266 266 266 266 266 266 267 267 268 269 269 270 270 271 271 270 270 270 270 271 271 271 271 271 271 272 272 273 273 274 275 275
247 247 248 249 250 250 251 251 252 251 251 251 250 250 250 251 251 251 250 249 249 249 250 250 250 249 248 247 246 247 247 248 249 250 251 253 254 254 255 255 256 256 257 257 258 259 260 260 261 262 262 262 263 264 264 265 266 266 267 267 267 267 267 267 267 268 269 270 270 271 271 270 270 270 270 270 271 271 271 272 272 273 274 274 275
248 249 250 251 251 252 252 252 253 253 253 253 252 252 252 252 252 252 252 252 251 250 250 251 251 252 251 250 249 248 248 248 249 250 251 251 252 253 253 254 255 255 255 256 256 257 258 259 259 260 261 261 262 262 263 263 264 265 265 266 266 267 266 266 265 265 265 266 267 268 269 270 271 271 271 271 271 271 272 272 272 273 273 274 275
247 249 250 251 252 253 254 254 254 255 255 255 255 254 254 254 254 254 254 254 254 253 253 253 253 253 253 253 253 252 251 250 250 250 252 252 253 253 253 253 253 254 254 255 255 256 257 257 258 259 260 261 261 262 262 263 263 264 264 264 265 265 266 266 266 266 265 265 265 265 266 267 268 269 270 271 272 272 273 273 274 274 275 275 276
247 248 249 250 252 253 254 255 256 256 257 257 257 257 257 256 256 256 255 255 255 255 255 255 255 255 255 254 254 254 254 253 252 251 251 252 253 254 254 254 254 254 254 254 254 255 255 256 257 258 259 260 261 261 262 262 263 263 264 264 264 265 265 266 266 266 267 267 267 266 266 266 266 267 267 268 268 269 270 271 272 272 273 274 275
248 248 249 250 251 252 253 254 255 257 257 258 259 259 259 259 259 259 258 258 257 257 257 257 257 257 257 257 256 256 256 255 255 254 253 253 253 254 255 256 256 256 255 255 255 255 255 255 256 256 257 258 259 260 261 261 262 262 263 263 264 265 265 266 266 266 267 267 267 267 268 268 268 268 268 269 269 269 269 269 269 270 271 271 272
249 249 250 251 251 252 253 254 255 256 257 258 259 260 260 261 261 261 261 261 260 260 259 259 259 259 259 259 259 258 257 257 257 256 256 255 255 254 255 255 256 257 257 257 257 256 256 256 255 255 256 256 257 258 259 260 260 261 261 262 263 263 264 265 265 266 267 267 267 268 268 268 269 269 270 270 270 271 271 271 271 272 272 272 272
250 250 251 252 252 253 254 255 255 256 257 257 258 259 260 261 262 262 263 263 263 263 263 262 262 261 261 261 261 261 260 260 259 259 258 257 257 256 256 256 256 256 257 257 258 258 258 258 257 257 257 256 257 257 258 258 259 260 260 261 261 262 262 263 264 265 265 266 266 267 268 268 269 269 270 270 271 271 272 273 273 273 274 274 274
254 253 254 254 254 255 255 256 257 257 258 258 259 260 260 261 262 262 263 263 264 264 265 265 264 264 264 264 263 263 263 262 262 261 261 260 259 259 258 258 257 257 257 257 258 258 259 259 259 259 259 259 258 258 258 259 259 259 260 260 260 260 261 261 262 263 263 264 265 265 266 266 267 268 268 269 270 271 271 272 273 273 273 274 274
258 257 257 257 258 258 258 258 259 259 259 260 260 261 261 262 262 263 263 263 264 265 265 266 266 266 266 266 265 265 265 265 264 263 263 262 262 261 261 260 259 259 259 259 259 259 259 260 260 260 261 260 260 260 260 260 260 260 261 260 260 260 260 260 260 261 262 263 263 264 265 265 266 266 267 267 268 269 269 270 270 271 272 272 273
262 262 261 261 261 261 261 261 261 262 262 262 262 263 263 264 264 264 265 265 266 266 266 267 267 267 267 267 267 267 266 266 266 265 265 264 264 263 263 262 262 261 261 261 261 261 261 261 261 261 262 262 262 262 262 262 262 262 262 262 262 262 262 261 261 261 261 262 262 263 264 264 265 266 266 267 267 268 268 269 269 270 270 271 271
268 267 266 266 265 265 265 265 265 266 266 266 266 266 267 267 267 268 268 268 269 269 269 269 269 269 269 268 268 268 267 267 267 266 266 266 266 265 265 265 264 264 264 263 263 263 263 263 263 263 263 263 263 263 263 263 263 263 263 263 263 263 263 263 263 263 263 263 263 263 264 264 265 265 266 266 267 267 268 269 269 270 270 270 271
273 272 271 270 270 269 269 269 270 270 270 270 271 271 271 272 272 272 272 272 272 272 272 272 272 271 271 271 270 270 269 269 268 268 268 267 267 267 267 267 267 267 267 266 266 266 266 266 265 265 264 264 264 264 264 264 264 264 264 264 264 264 265 265 265 265 265 265 265 265 265 265 265 266 266 266 267 267 268 268 269 269 270 270 271
274 273 272 271 271 271 271 272 272 273 273 274 274 275 275 275 275 275 275 275 275 275 275 275 275 274 274 274 273 273 272 272 272 271 270 270 270 270 270 270 270 270 270 269 269 269 268 268 268 267 267 267 266 266 266 265 265 265 265 265 266 266 266 266 266 266 266 266 266 266 266 266 267 267 267 267 267 267 268 268 269 269 270 270 271
Height
10983 10986 10987 10988 10989 10989 10989 10988 10988 10988 10988 10988 10989 10989 10990 10991 10992 10993 10993 10995 10996 10997 10998 10999 11000 11002 11003 11004 11005 11006 11006 11007 11008 11008 11009 11009 11010 11010 11010 11011 11011 11011 11012 11012 11012 11012 11012 11012 11012 11012 11012 11012 11011 11011 11011 11011 11011 11011 11011 11011 11010 11010 11009 11009 11008 11008 11007 11007 11007 11007 11006 11006 11005 11005 11005 11004 11004 11003 11003 11002 11002 11001 11000 10999 10998
10983 10984 10985 10986 10987 10988 10988 10988 10988 10988 10988 10989 10989 10990 10990 10991 10992 10993 10994 10995 10996 10997 10998 11000 11001 11002 11003 11004 11005 11006 11007 11007 11008 11009 11009 11010 11010 11010 11011 11011 11011 11012 11012 11012 11013 11013 11013 11012 11012 11012 11012 11012 11012 11012 11012 11012 11012 11012 11012 11012 11012 11011 11011 11010 11010 11009 11009 11009 11009 11008 11007 11007 11006 11006 11006 11005 11005 11004 11004 11003 11003 11002 11002 11001 11000
10983 10983 10984 10985 10986 10987 10988 10989 10989 10989 10989 10989 10989 10989 10990 10991 10992 10992 10994 10995 10996 10997 10998 11000 11001 11002 11003 11004 11005 11006 11007 11008 11008 11009 11009 11010 11010 11011 11011 11011 11012 11012 11012 11013 11013 11013 11013 11013 11013 11013 11013 11013 11013 11013 11013 11013 11013 11013 11013 11013 11013 11012 11012 11012 11011 11011 11010 11010 11010 11009 11009 11008 11008 11007 11007 11006 11006 11005 11005 11005 11004 11004 11003 11003 11003
10982 10983 10984 10985 10986 10987 10988 10988 10989 10989 10990 10990 10990 10990 10990 10991 10991 10992 10993 10994 10995 10996 10997 10999 11000 11002 11003 11004 11005 11006 11007 11008 11008 11009 11009 11009 11010 11010 11011 11011 11012 11012 11012 11013 11013 11013 11013 11013 11013 11013 11013 11013 11013 11013 11013 11014 11014 11014 11014 11014 11014 11014 11013 11013 11012 11012 11012 11011 11011 11010 11010 11010 11010 11009 11009 11008 11008 11007 11007 11007 11006 11005 11005 11005 11004
10981 10982 10983 10984 10985 10986 10986 10987 10988 10988 10988 10988 10990 10991 10991 10991 10992 10993 10994 10994 10994 10995 10996 10997 10999 11000 11002 11003 11005 11006 11007 11007 11008 11008 11008 11009 11009 11010 11010 11011 11011 11012 11012 11012 11013 11013 11013 11013 11013 11013 11013 11013 11013 11013 11013 11013 11014 11014 11014 11014 11014 11014 11013 11013 11013 11012 11012 11012 11012 11012 11012 11012 11012 11012 11011 11011 11010 11009 11008 11008 11007 11007 11007 11006 11006
10978 10979 10980 10982 10983 10984 10985 10985 10986 10987 10987 10988 10989 10989 10989 10990 10991 10992 10993 10994 10995 10996 10996 10996 10996 10998 11000 11002 11004 11005 11005 11006 11006 11007 11007 11007 11008 11009 11009 11010 11011 11011 11011 11012 11012 11013 11013 11013 11013 11013 11012 11012 11012 11012 11012 11012 11012 11012 11013 11013 11013 11014 11013 11013 11013 11013 11013 11013 11013 11013 11013 11013 11013 11013 11013 11012 11011 11011 11010 11009 11008 11008 11008 11008 11007
10975 10976 10977 10979 10981 10982 10983 10984 10985 10986 10987 10987 10987 10987 10988 10989 10990 10991 10992 10993 10994 10995 10995 10994 10993 10994 10997 11001 11004 11004 11004 11004 11004 11004 11005 11006 11007 11008 11008 11009 11010 11010 11010 11011 11011 11011 11012 11013 11012 11012 11012 11012 11011 11011 11011 11010 11011 11011 11012 11012 11013 11013 11013 11013 11013 11013 11013 11013 11014 11014 11013 11013 11013 11012 11013 11013 11012 11011 11010 11009 11009 11008 11008 11008 11008
10971 10972 10974 10976 10977 10979 10981 10982 10983 10984 10985 10986 10986 10986 10986 10987 10988 10989 10990 10991 10992 10993 10993 10992 10992 10993 10995 11000 11003 11003 11002 11002 11002 11003 11004 11004 11005 11006 11006 11007 11007 11008 11008 11009 11008 11008 11009 11010 11011 11010 11010 11010 11010 11010 11010 11010 11010 11010 11011 11011 11012 11013 11013 11013 11013 11013 11013 11014 11014 11014 11013 11012 11012 11011 11011 11011 11011 11011 11010 11009 11009 11008 11008 11007 11007
10966 10968 10970 10972 10974 10976 10977 10979 10980 10981 10983 10984 10984 10984 10985 10986 10987 10987 10988 10989 10990 10990 10990 10990 10990 10992 10994 10997 11001 11002 11000 11000 11001 11002 11002 11002 11002 11003 11003 11004 11004 11005 11006 11006 11006 11006 11006 11007 11008 11008 11008 11008 11008 11008 11008 11008 11009 11009 11009 11010 11011 11012 11012 11013 11013 11013 11013 11013 11013 11012 11012 11011 11010 11010 11009 11009 11009 11009 11008 11007 11007 11007 11007 11006 11005
10961 10963 10966 10969 10970 10972 10974 10975 10977 10978 10979 10980 10981 10982 10983 10983 10984 10985 10985 10986 10987 10987 10987 10988 10988 10990 10992 10994 10996 10997 10998 10998 10999 10999 10998 10999 11000 11000 11000 11001 11001 11002 11003 11003 11004 11004 11004 11005 11006 11006 11006 11006 11006 11006 11005 11006 11006 11006 11007 11008 11009 11010 11010 11011 11011 11011 11011 11011 11011 11010 11010 11009 11008 11008 11008 11007 11007 11006 11006 11005 11005 11005 11005 11005 11004
10956 10959 10962 10964 10966 10968 10970 10971 10973 10974 10975 10977 10978 10979 10979 10980 10981 10982 10983 10983 10984 10985 10986 10986 10987 10988 10990 10991 10990 10990 10993 10995 10996 10996 10996 10996 10997 10997 10997 10998 10999 10999 11000 11001 11001 11001 11002 11003 11004 11005 11006 11006 11004 11003 11002 11002 11002 11003 11003 11004 11005 11006 11007 11007 11008 11008 11008 11008 11008 11007 11007 11006 11006 11006 11006 11005 11005 11004 11004 11003 11003 11003 11003 11003 11002
10952 10955 10958 10960 10962 10963 10964 10967 10968 10969 10970 10972 10974 10975 10975 10977 10978 10979 10980 10981 10982 10983 10984 10985 10986 10987 10988 10989 10988 10987 10990 10992 10993 10993 10993 10993 10994 10994 10994 10994 10996 10997 10997 10998 10999 10999 11000 11000 11001 11002 11002 11001 10999 10999 10999 10999 11000 11000 11001 11001 11001 11002 11003 11004 11004 11004 11004 11005 11005 11004 11004 11003 11003 11003 11003 11003 11002 11002 11002 11001 11001 11001 11001 11001 11001
10946 10947 10950 10954 10956 10957 10959 10961 10962 10963 10965 10967 10969 10971 10971 10973 10975 10976 10977 10978 10980 10981 10981 10983 10984 10985 10986 10987 10987 10986 10988 10989 10989 10990 10991 10991 10991 10991 10990 10991 10992 10993 10994 10995 10996 10996 10997 10997 10997 10997 10995 10994 10995 10996 10997 10998 10998 10999 10999 11000 11000 11000 11001 11001 11001 11001 11001 11001 11001 11001 11001 11000 11000 11001 11000 11000 11000 11000 10999 10999 10999 10999 10999 10999 10999
10937 10939 10942 10946 10949 10951 10952 10955 10957 10958 10960 10962 10964 10966 10967 10968 10970 10971 10972 10974 10976 10977 10978 10980 10981 10982 10984 10986 10986 10984 10983 10984 10985 10986 10987 10988 10988 10988 10988 10988 10989 10990 10991 10991 10992 10993 10993 10993 10994 10993 10992 10992 10993 10993 10994 10995 10995 10996 10996 10997 10998 10998 10998 10999 10999 10998 10998 10998 10998 10998 10999 10998 10997 10998 10998 10998 10998 10997 10996 10996 10996 10997 10997 10997 10997
10928 10932 10935 10938 10942 10944 10945 10947 10950 10951 10953 10957 10960 10961 10962 10963 10964 10966 10968 10970 10972 10973 10974 10976 10977 10978 10981 10983 10981 10977 10979 10981 10982 10983 10983 10984 10985 10986 10986 10986 10986 10987 10987 10988 10988 10989 10990 10990 10990 10990 10989 10989 10990 10990 10991 10991 10991 10992 10992 10993 10994 10994 10994 10995 10995 10995 10994 10994 10995 10995 10995 10995 10994 10994 10994 10995 10995 10994 10993 10993 10994 10994 10994 10993 10993
10920 10924 10927 10931 10934 10936 10937 10939 10942 10943 10946 10951 10954 10955 10956 10957 10959 10961 10963 10965 10967 10968 10970 10972 10973 10974 10976 10977 10974 10973 10976 10979 10979 10979 10980 10981 10982 10983 10983 10983 10983 10983 10984 10985 10985 10985 10986 10986 10986 10986 10986 10985 10985 10986 10988 10988 10988 10988 10989 10989 10989 10990 10990 10991 10991 10991 10990 10991 10991 10991 10991 10991 10991 10991 10991 10991 10991 10990 10990 10990 10991 10991 10990 10989 10989
10914 10916 10919 10922 10924 10927 10930 10932 10934 10937 10939 10943 10946 10948 10950 10951 10953 10955 10957 10960 10962 10964 10965 10967 10968 10970 10971 10971 10970 10971 10973 10974 10974 10975 10976 10977 10978 10979 10979 10979 10979 10979 10980 10981 10981 10982 10982 10981 10981 10982 10981 10981 10981 10982 10983 10984 10985 10985 10985 10985 10985 10986 10986 10987 10987 10987 10986 10987 10987 10987 10987 10988 10988 10987 10988 10988 10987 10986 10986 10987 10987 10987 10986 10985 10985
10906 10908 10910 10913 10915 10918 10921 10925 10928 10931 10933 10936 10939 10942 10943 10945 10947 10950 10952 10954 10957 10958 10960 10962 10963 10964 10965 10966 10966 10967 10969 10970 10970 10971 10972 10973 10974 10974 10974 10974 10974 10975 10975 10976 10978 10978 10977 10976 10976 10976 10977 10976 10977 10977 10978 10979 10980 10980 10981 10981 10981 10981 10982 10982 10983 10982 10982 10982 10982 10982 10983 10983 10984 10983 10984 10984 10983 10981 10981 10982 10983 10982 10981 10981 10981
10899 10900 10902 10904 10906 10909 10914 10918 10922 10925 10927 10930 10932 10934 10936 10938 10940 10943 10946 10948 10950 10952 10954 10955 10957 10958 10959 10961 10962 10963 10964 10965 10965 10966 10967 10968 10969 10969 10969 10969 10969 10969 10970 10971 10973 10972 10971 10971 10971 10971 10972 10972 10972 10973 10973 10974 10974 10975 10975 10976 10976 10976 10977 10977 10978 10978 10977 10977 10977 10978 10978 10978 10979 10979 10979 10980 10979 10977 10976 10977 10978 10977 10976 10976 10975
10890 10892 10894 10896 10899 10903 10908 10913 10916 10918 10922 10924 10926 10927 10929 10930 10933 10935 10938 10940 10943 10945 10947 10948 10950 10952 10953 10955 10956 10957 10958 10959 10960 10961 10962 10963 10963 10964 10963 10963 10963 10963 10964 10965 10965 10965 10964 10965 10965 10966 10966 10966 10967 10968 10968 10968 10969 10969 10970 10970 10970 10970 10970 10971 10972 10972 10972 10972 10972 10972 10972 10973 10973 10974 10974 10974 10974 10973 10971 10971 10972 10972 10971 10971 10970
10882 10884 10886 10888 10892 10897 10902 10906 10909 10911 10914 10917 10919 10921 10922 10923 10925 10927 10929 10932 10935 10937 10939 10941 10943 10945 10946 10948 10950 10952 10952 10953 10953 10954 10955 10956 10957 10958 10957 10956 10956 10956 10957 10958 10958 10957 10957 10958 10959 10960 10960 10960 10961 10962 10962 10963 10963 10963 10964 10964 10964 10963 10963 10964 10965 10966 10966 10966 10966 10966 10966 10967 10967 10967 10968 10968 10968 10967 10966 10965 10965 10966 10966 10965 10965
10875 10877 10878 10881 10885 10890 10894 10898 10900 10902 10905 10908 10911 10913 10914 10915 10917 10919 10921 10924 10926 10928 10931 10933 10935 10938 10939 10940 10942 10944 10945 10945 10946 10947 10949 10949 10950 10951 10950 10949 10949 10948 10948 10949 10950 10950 10949 10951 10953 10953 10953 10954 10955 10955 10955 10956 10956 10957 10958 10958 10958 10958 10958 10958 10959 10959 10959 10959 10959 10959 10959 10960 10960 10960 10961 10961 10961 10961 10961 10960 10959 10959 10960 10960 10959
10868 10869 10871 10874 10878 10882 10886 10889 10891 10893 10896 10899 10901 10903 10905 10907 10908 10910 10912 10915 10917 10920 10922 10925 10927 10929 10931 10933 10935 10937 10938 10938 10939 10940 10941 10941 10942 10943 10942 10940 10940 10942 10942 10943 10944 10944 10944 10946 10947 10946 10946 10948 10948 10948 10948 10949 10950 10950 10951 10952 10952 10953 10953 10953 10953 10953 10952 10952 10952 10952 10952 10953 10953 10953 10953 10953 10953 10954 10954 10954 10954 10953 10952 10952 10952
10858 10861 10864 10867 10870 10873 10876 10879 10882 10884 10887 10889 10892 10894 10896 10898 10900 10901 10903 10906 10908 10911 10913 10916 10918 10921 10923 10925 10926 10928 10930 10931 10931 10932 10933 10933 10934 10935 10934 10932 10933 10936 10937 10938 10939 10939 10939 10939 10940 10939 10939 10939 10939 10940 10941 10941 10942 10943 10944 10944 10945 10945 10945 10946 10946 10946 10945 10945 10945 10945 10945 10945 10945 10945 10945 10945 10945 10946 10947 10947 10947 10946 10945 10944 10944
10848 10851 10854 10858 10861 10864 10867 10869 10872 10875 10877 10880 10883 10885 10887 10889 10891 10893 10895 10897 10899 10901 10904 10906 10909 10912 10914 10915 10917 10919 10921 10922 10923 10924 10924 10924 10925 10926 10926 10925 10925 10927 10929 10930 10930 10930 10931 10931 10932 10932 10931 10930 10931 10932 10932 10933 10934 10935 10935 10935 10935 10936 10936 10937 10938 10938 10938 10938 10938 10938 10938 10937 10938 10938 10937 10937 10937 10938 10938 10939 10938 10937 10937 10935 10935
10837 10840 10843 10847 10850 10854 10857 10860 10862 10865 10867 10870 10872 10876 10878 10880 10882 10884 10886 10888 10890 10892 10895 10897 10899 10902 10904 10906 10908 10909 10911 10913 10914 10915 10915 10915 10916 10917 10918 10917 10916 10917 10919 10920 10920 10921 10922 10922 10923 10924 10923 10923 10923 10923 10924 10925 10926 10926 10925 10925 10926 10927 10928 10929 10929 10930 10930 10930 10931 10931 10930 10930 10930 10930 10929 10929 10929 10929 10929 10929 10929 10929 10928 10927 10927
10828 10830 10832 10835 10839 10843 10847 10851 10853 10855 10858 10860 10863 10865 10868 10871 10873 10875 10877 10879 10881 10883 10885 10887 10888 10891 10893 10895 10898 10900 10901 10903 10904 10905 10906 10906 10906 10907 10908 10908 10909 10908 10909 10909 10910 10910 10912 10913 10914 10914 10915 10915 10915 10915 10915 10916 10917 10916 10916 10916 10917 10918 10919 10920 10921 10921 10922 10922 10922 10922 10922 10922 10922 10922 10922 10921 10920 10921 10921 10920 10920 10920 10920 10919 10919
10817 10820 10821 10824 10827 10832 10836 10841 10844 10847 10849 10851 10853 10855 10858 10860 10863 10866 10868 10870 10872 10874 10876 10877 10878 10879 10881 10883 10886 10889 10891 10893 10894 10895 10896 10896 10896 10896 10897 10898 10899 10899 10899 10899 10899 10900 10901 10903 10903 10904 10905 10906 10906 10906 10907 10907 10907 10907 10907 10908 10908 10909 10910 10911 10911 10912 10912 10912 10913 10913 10913 10914 10913 10913 10913 10913 10912 10912 10912 10911 10910 10910 10911 10911 10910
10805 10808 10811 10813 10816 10820 10824 10829 10833 10837 10839 10841 10843 10845 10848 10850 10852 10855 10857 10860 10862 10864 10865 10867 10868 10869 10870 10871 10873 10876 10879 10881 10883 10885 10886 10886 10885 10885 10886 10886 10888 10889 10889 10889 10889 10890 10890 10891 10892 10893 10894 10895 10895 10896 10897 10897 10897 10897 10897 10898 10899 10899 10899 10900 10901 10901 10902 10902 10903 10903 10904 10904 10904 10904 10904 10904 10903 10903 10902 10902 10901 10901 10901 10901 10901
10793 10796 10799 10802 10805 10809 10813 10817 10821 10825 10828 10831 10833 10835 10837 10840 10842 10844 10847 10849 10851 10853 10855 10856 10858 10859 10860 10861 10862 10863 10865 10868 10870 10872 10874 10874 10875 10874 10874 10875 10876 10877 10877 10878 10878 10879 10879 10879 10880 10882 10883 10884 10884 10884 10885 10886 10886 10886 10887 10887 10888 10888 10889 10889 10890 10891 10891 10892 10892 10893 10893 10894 10894 10894 10894 10894 10894 10894 10893 10892 10891 10891 10891 10890 10890
10782 10784 10787 10790 10793 10797 10801 10805 10809 10812 10815 10818 10821 10824 10827 10829 10831 10834 10836 10838 10840 10841 10843 10845 10846 10848 10849 10851 10852 10852 10853 10854 10856 10858 10859 10861 10862 10862 10862 10863 10864 10864 10865 10866 10867 10867 10867 10867 10868 10870 10871 10872 10872 10871 10872 10873 10874 10875 10875 10876 10877 10877 10878 10878 10878 10879 10880 10881 10882 10882 10882 10882 10883 10883 10884 10884 10884 10883 10883 10882 10882 10882 10882 10881 10879
10770 10773 10775 10778 10782 10785 10789 10792 10796 10799 10803 10806 10809 10812 10815 10817 10820 10822 10825 10827 10828 10830 10832 10833 10835 10836 10838 10840 10841 10842 10842 10842 10842 10843 10845 10846 10847 10848 10849 10850 10851 10851 10851 10853 10854 10855 10855 10855 10856 10857 10858 10859 10859 10859 10859 10860 10861 10863 10863 10864 10865 10865 10866 10866 10866 10867 10868 10868 10869 10870 10870 10871 10871 10873 10873 10873 10873 10873 10872 10872 10872 10872 10872 10871 10870
10758 10761 10763 10766 10769 10772 10776 10779 10783 10787 10790 10793 10796 10799 10802 10804 10807 10810 10813 10815 10817 10818 10820 10822 10823 10825 10826 10828 10829 10830 10830 10831 10831 10831 10832 10832 10833 10833 10834 10835 10836 10837 10837 10839 10840 10841 10841 10842 10843 10844 10845 10845 10846 10847 10847 10847 10848 10849 10850 10851 10852 10852 10853 10853 10854 10855 10855 10856 10856 10856 10857 10857 10859 10860 10860 10860 10860 10861 10861 10861 10861 10861 10860 10859 10858
10746 10749 10751 10754 10757 10760 10764 10767 10770 10773 10777 10780 10783 10786 10789 10792 10794 10797 10800 10803 10804 10806 10808 10810 10811 10812 10814 10815 10816 10817 10818 10819 10820 10821 10821 10820 10820 10819 10819 10820 10821 10821 10822 10824 10825 10826 10826 10827 10828 10829 10830 10831 10832 10833 10833 10834 10834 10835 10836 10837 10838 10839 10839 10840 10841 10841 10842 10843 10843 10842 10843 10844 10845 10846 10846 10846 10846 10847 10848 10848 10848 10848 10848 10847 10846
10735 10737 10740 10743 10746 10749 10752 10755 10758 10761 10763 10766 10770 10773 10777 10779 10781 10784 10787 10789 10791 10793 10795 10796 10797 10798 10800 10802 10803 10804 10805 10806 10808 10809 10809 10809 10808 10807 10807 10807 10807 10807 10807 10807 10808 10810 10811 10812 10812 10813 10814 10815 10816 10818 10819 10819 10819 10820 10821 10822 10823 10824 10825 10826 10827 10827 10828 10829 10829 10829 10829 10830 10831 10831 10831 10832 10832 10833 10833 10834 10834 10834 10834 10833 10833
10724 10727 10729 10731 10735 10738 10740 10743 10745 10748 10750 10753 10756 10760 10763 10767 10769 10770 10773 10775 10777 10779 10781 10783 10784 10784 10786 10788 10789 10790 10791 10793 10794 10796 10796 10796 10796 10796 10796 10796 10795 10794 10793 10793 10793 10794 10796 10796 10797 10797 10799 10800 10801 10802 10804 10804 10805 10805 10805 10806 10807 10808 10809 10810 10811 10812 10813 10814 10814 10815 10816 10816 10816 10816 10817 10818 10818 10819 10819 10819 10819 10819 10819 10819 10818
10714 10716 10718 10721 10724 10726 10728 10730 10733 10735 10738 10741 10743 10746 10749 10752 10755 10757 10759 10760 10762 10764 10766 10768 10770 10771 10772 10774 10775 10777 10777 10778 10779 10780 10781 10781 10782 10782 10783 10783 10783 10781 10780 10779 10779 10779 10780 10781 10782 10783 10784 10785 10786 10787 10788 10789 10790 10791 10791 10792 10792 10793 10793 10794 10795 10796 10797 10798 10798 10800 10801 10801 10801 10802 10803 10803 10804 10804 10804 10804 10804 10803 10804 10803 10802
10705 10706 10708 10710 10713 10715 10717 10718 10721 10723 10726 10728 10730 10732 10734 10737 10740 10743 10745 10746 10748 10749 10751 10753 10754 10755 10756 10758 10760 10762 10764 10764 10764 10763 10764 10766 10767 10767 10768 10768 10767 10766 10766 10765 10764 10763 10764 10766 10768 10770 10770 10770 10770 10771 10772 10773 10774 10775 10777 10778 10779 10779 10779 10779 10780 10780 10780 10781 10782 10783 10785 10785 10786 10786 10786 10787 10788 10789 10789 10789 10789 10788 10788 10788 10787
10694 10697 10698 10700 10702 10704 10705 10707 10709 10711 10713 10715 10717 10719 10721 10723 10725 10727 10729 10731 10733 10735 10736 10738 10739 10739 10740 10742 10744 10746 10749 10750 10749 10748 10747 10748 10750 10752 10752 10751 10749 10748 10749 10749 10747 10747 10749 10751 10752 10754 10754 10755 10755 10755 10756 10757 10758 10760 10762 10763 10764 10764 10765 10766 10766 10766 10765 10765 10766 10767 10768 10769 10769 10770 10771 10771 10771 10772 10772 10773 10773 10773 10773 10773 10772
10684 10686 10688 10690 10692 10693 10695 10696 10697 10698 10700 10702 10704 10705 10707 10709 10711 10713 10714 10716 10718 10720 10722 10723 10723 10723 10724 10725 10727 10729 10731 10734 10735 10733 10731 10730 10731 10734 10735 10734 10732 10730 10729 10729 10730 10731 10733 10735 10735 10736 10736 10737 10739 10740 10742 10743 10744 10746 10747 10747 10747 10748 10749 10751 10752 10752 10753 10753 10753 10752 10751 10751 10751 10753 10754 10754 10754 10755 10756 10756 10757 10757 10756 10756 10756
10674 10676 10678 10680 10682 10683 10684 10685 10686 10687 10687 10689 10691 10693 10695 10696 10698 10699 10700 10701 10703 10705 10707 10708 10708 10708 10707 10708 10710 10711 10713 10715 10718 10718 10716 10715 10714 10715 10716 10715 10714 10712 10710 10710 10712 10714 10716 10718 10719 10719 10719 10719 10721 10724 10726 10727 10728 10729 10730 10730 10730 10730 10732 10733 10735 10736 10737 10738 10739 10738 10737 10736 10737 10737 10738 10737 10737 10737 10738 10737 10738 10738 10738 10738 10738
10665 10666 10668 10670 10672 10673 10674 10675 10675 10676 10677 10678 10679 10680 10682 10683 10684 10685 10687 10687 10688 10689 10691 10692 10692 10692 10691 10691 10693 10694 10695 10697 10699 10700 10700 10699 10698 10697 10697 10695 10694 10692 10690 10690 10692 10696 10699 10701 10703 10704 10704 10702 10702 10705 10708 10710 10711 10711 10711 10711 10712 10712 10713 10715 10717 10717 10718 10720 10720 10720 10720 10720 10721 10722 10722 10722 10722 10723 10722 10721 10720 10720 10720 10721 10720
10655 10656 10658 10659 10661 10662 10663 10664 10665 10665 10666 10667 10668 10669 10669 10670 10670 10671 10672 10673 10673 10674 10676 10677 10678 10676 10674 10673 10674 10675 10676 10678 10680 10682 10683 10683 10682 10680 10679 10677 10674 10671 10669 10669 10672 10676 10680 10683 10686 10689 10689 10687 10686 10686 10688 10690 10692 10692 10692 10692 10692 10694 10695 10696 10697 10698 10699 10700 10702 10702 10702 10701 10701 10702 10704 10705 10706 10706 10707 10706 10705 10705 10706 10707 10705
10646 10647 10648 10649 10650 10651 10652 10653 10654 10655 10655 10656 10657 10657 10657 10657 10657 10658 10658 10658 10659 10659 10660 10661 10663 10661 10657 10655 10656 10657 10658 10660 10661 10662 10663 10664 10664 10663 10662 10660 10655 10650 10648 10649 10652 10655 10658 10662 10667 10670 10672 10672 10671 10670 10669 10669 10670 10671 10672 10673 10674 10675 10677 10677 10678 10677 10677 10678 10680 10682 10683 10681 10680 10681 10683 10685 10685 10685 10685 10687 10688 10688 10689 10689 10688
10637 10638 10639 10640 10640 10641 10642 10643 10643 10644 10645 10645 10645 10646 10646 10646 10646 10646 10646 10645 10645 10644 10644 10645 10646 10646 10643 10640 10638 10639 10640 10641 10642 10642 10642 10643 10644 10643 10643 10641 10637 10634 10632 10632 10633 10635 10637 10640 10645 10648 10650 10653 10654 10654 10651 10648 10647 10648 10651 10655 10658 10658 10658 10658 10659 10658 10657 10657 10658 10659 10661 10661 10659 10659 10661 10663 10663 10662 10663 10665 10668 10668 10667 10666 10665
10629 10629 10630 10631 10631 10632 10633 10633 10634 10634 10634 10634 10634 10635 10635 10635 10634 10634 10634 10633 10631 10630 10630 10629 10629 10630 10629 10626 10624 10622 10621 10622 10623 10623 10622 10623 10623 10622 10620 10618 10618 10618 10619 10618 10617 10617 10618 10621 10622 10624 10626 10629 10632 10634 10633 10630 10626 10626 10628 10633 10638 10640 10641 10640 10640 10639 10637 10637 10636 10637 10638 10640 10640 10639 10639 10640 10641 10641 10641 10644 10647 10646 10644 10642 10643
10621 10622 10622 10623 10623 10623 10624 10624 10624 10624 10624 10624 10624 10624 10624 10623 10622 10621 10621 10620 10619 10618 10618 10617 10616 10616 10614 10612 10610 10607 10605 10603 10603 10602 10602 10603 10603 10601 10598 10597 10598 10600 10601 10602 10601 10601 10602 10603 10603 10602 10602 10604 10607 10610 10611 10609 10606 10605 10606 10609 10613 10617 10620 10620 10620 10619 10618 10618 10617 10617 10617 10618 10618 10619 10620 10620 10620 10620 10621 10623 10624 10624 10623 10621 10621
10615 10615 10615 10615 10615 10615 10615 10615 10615 10615 10615 10614 10614 10614 10614 10612 10610 10609 10609 10608 10608 10607 10606 10604 10603 10602 10600 10598 10595 10593 10589 10586 10585 10584 10583 10584 10583 10581 10579 10579 10580 10581 10582 10583 10583 10584 10585 10585 10584 10583 10582 10582 10584 10585 10585 10584 10584 10584 10585 10586 10588 10591 10593 10595 10596 10597 10598 10598 10598 10598 10597 10597 10596 10596 10598 10600 10600 10600 10600 10600 10601 10601 10601 10601 10601
10609 10609 10609 10609 10608 10608 10608 10607 10607 10606 10606 10605 10604 10604 10604 10602 10600 10598 10598 10598 10596 10595 10593 10591 10589 10587 10585 10583 10581 10578 10575 10572 10569 10567 10566 10566 10564 10562 10561 10561 10562 10563 10563 10564 10564 10566 10566 10564 10562 10561 10561 10562 10562 10561 10559 10559 10559 10561 10563 10564 10565 10565 10566 10567 10569 10571 10573 10574 10575 10575 10576 10576 10575 10575 10576 10579 10580 10580 10579 10578 10577 10577 10579 10580 10580
10604 10603 10603 10602 10602 10601 10601 10600 10599 10598 10597 10596 10596 10595 10594 10593 10590 10588 10587 10587 10585 10582 10581 10579 10577 10574 10571 10568 10566 10563 10561 10557 10554 10552 10550 10549 10548 10547 10545 10545 10544 10544 10543 10544 10545 10546 10545 10542 10539 10538 10538 10539 10539 10537 10535 10535 10535 10537 10539 10540 10541 10541 10541 10542 10543 10544 10546 10547 10548 10549 10551 10551 10552 10552 10553 10555 10557 10557 10556 10554 10552 10552 10555 10557 10557
10598 10597 10597 10596 10595 10594 10594 10593 10592 10591 10589 10588 10587 10586 10585 10583 10581 10578 10576 10576 10574 10571 10568 10567 10565 10562 10558 10554 10551 10549 10546 10543 10539 10536 10534 10533 10532 10532 10531 10529 10527 10525 10524 10524 10525 10524 10522 10520 10518 10517 10516 10515 10513 10512 10510 10510 10511 10513 10515 10516 10516 10516 10516 10517 10518 10518 10519 10520 10521 10521 10523 10524 10525 10525 10526 10528 10530 10531 10531 10530 10528 10527 10528 10530 10531